星链-31386 (STARLINK-31386 )

导读

STARLINK-31386是美国SpaceX公司于2024年3月24日发射的星链卫星,属于第二代星链(Starlink Gen2)的v2.0 mini批次,运行在近地轨道,轨道高度约475公里,倾角53.16°。作为星链星座的组成部分,它为全球提供高速低延迟宽带互联网服务,尤其服务传统基础设施覆盖不足的偏远区域,配备激光星间链路与自主避碰系统,设计寿命5-7年,退役后会再入大气层完全销毁。

基本信息
目录编号:
59298
目录名称:
STARLINK-31386
国际标识:
2024-056C
轨道中心:
EARTH
卫星名称:
星链-31386
卫星全名:
星链-31386 (STARLINK-31386 )
卫星状态:
在轨 (已飞行901 天)
发射日期:
2024-03-24 UTC
国别 :
美国 (US)
星等 :
--
该卫星已列入 空间交会检测服务 Space Conjunction Data Service (SCDS) ,当前飞行风险评估等级: 高风险
轨道信息
数据来源 国际轨道数据
星历时间: 2026-09-11T09:17:42+0800
18小时前
查看轨道信息
半长轴: 6861.198km
偏心率: 0.0001149
轨道倾角: 43.000°
近地点辐角 275.505°
升交点赤经 263.848°
平近点角 84.567°
近地点: 482.272km
远地点: 483.85km
周期: 94.267分钟
每日圈数: 15.275762
详细信息
固有亮度:
5
最大亮度:
0.3
卫星平台:
Starlink v2.0 mini
覆盖范围:
全球
运营商:
太空探索技术公司
运营商所在国:
美国
制造商(研发单位):
太空探索技术公司
制造商所在国:
美国
使用方式:
暂无
卫星简介
星链(Starlink)计划是由太空探索技术公司(SpaceX)提出的一个巨型低轨卫星互联网星座项目,计划在2019年至2024年间在太空搭建由约1.2万颗卫星组成的“星链”网络,其中1584颗将部署在地球上空550千米处的近地轨道,并从2020年开始工作。该卫星仍在工作。
2D轨道图
3D轨道图
轨道高度分析图
轨道倾角分析图
轨道综合分析图
查看轨道综合分析图
与全量物体交会距离演化趋势
与全量物体交会风险概率演化趋势